[[{"header":{"parameterUnit":"m.s-1","parameterCategory":1,"la1":30.2991,"la2":30.254,"lo1":-89.0895,"lo2":-89.0444,"dy":0.0017,"dx":0.0017,"nx":28,"ny":28,"refTime":"2024-08-16T09:00:00:Z","depth":0,"parameterNumber":2,"parameterNumberName":"U-component_of_WINDS"},"data":[0,0,0,0,0,0,0,0,0,0,0,0,0,0,0,0,0,0,0,0,0,0,0,0,0,0,0,0,0,0,0,0,0,0,0,0,0,0,0,0,0,0,0,0,0,0,0,0,0,0,0,0,0,0,0,0,0,0,0.9327,0.9327,0,0.9313,0.9313,0.9313,0.9301,0.9301,0.9301,0.9301,0.9285,0.9285,0.9284,0,0,0,0,0,0,0,0,0,0,0,0,0,0.9338,0.9338,0.9327,0.9327,0.9326,0.9313,0.9313,0.9313,0.9301,0.9301,0.9301,0.9301,0.9285,0.9285,0.9284,0,0,0,0,0,0,0,0,0,0,0,0,0,0.933,0.9338,0.9327,0.9319,0.9318,0.9313,0.9313,0.9313,0.9301,0.9301,0.9301,0.93,0.9285,0.9285,0.9284,0.9286,0,0,0.9283,0.9283,0,0,0,0,0,0,0,0,0.933,0.9329,0.932,0.9319,0.9319,0.9309,0.9311,0.9304,0.9301,0.9307,0.9301,0.93,0.9293,0.9292,0.929,0.9285,0.9285,0.9283,0.9283,0.9283,0.9282,0,0,0,0,0,0,0,0.9331,0.933,0.9321,0.932,0.9319,0.9315,0.9313,0.931,0.9301,0.9307,0.9306,0.9305,0.9292,0.929,0.9289,0.9284,0.9283,0.9283,0.9282,0.9282,0.9277,0.9277,0,0,0,0,0,0,0.9333,0.933,0.9322,0.9321,0.9324,0.9315,0.9313,0.9312,0.9302,0.93,0.9305,0.9304,0.9291,0.929,0.9289,0.9288,0.9283,0.9282,0.9282,0.9276,0.9277,0.9277,0,0,0,0,0,0,0.9333,0.9332,0.9322,0.9325,0.9324,0.9315,0.9314,0.9312,0.931,0.93,0.9298,0.9304,0.9291,0.9289,0.9286,0.9287,0.9282,0.9282,0.9276,0.9276,0.9277,0.9287,0,0,0,0,0,0,0.9334,0.9333,0.9334,0.9326,0.9324,0.9321,0.9314,0.9312,0.9309,0.9308,0.9299,0.9297,0.9291,0.9287,0.9286,0.9286,0.9281,0.9276,0.9276,0.9277,0.9286,0.9287,0.9288,0,0,0,0,0,0.9334,0.9338,0.9334,0.9333,0.9326,0.9321,0.932,0.9313,0.9309,0.931,0.9303,0.9298,0.9287,0.9287,0.9285,0.9286,0.9276,0.9276,0.9277,0.9286,0.9287,0.9288,0,0,0,0,0,0,0.9347,0.9337,0.9333,0.9334,0.9329,0.9319,0.932,0.9315,0.931,0.9309,0.9299,0.9297,0.9295,0.929,0.9289,0.9285,0.9281,0.9281,0.9288,0.9289,0.929,0.9291,0.9281,0,0,0,0,0,0.935,0.9348,0.9339,0.9341,0.9339,0.933,0.9328,0.9322,0.9316,0.9314,0.9307,0.93,0.9295,0.9292,0.9287,0.9285,0.9282,0.9285,0.9286,0.9286,0.9286,0.9282,0.9283,0.9277,0.9277,0.9277,0,0,0.9356,0.935,0.935,0.9343,0.9339,0.9335,0.9328,0.9326,0.9323,0.9313,0.9309,0.9304,0.9295,0.9292,0.9291,0.9288,0.9287,0.9287,0.9287,0.9287,0.9283,0.9283,0.9284,0.9278,0.9278,0.9278,0,0,0.9366,0.9362,0.9362,0.9357,0.935,0.9343,0.9343,0.9334,0.933,0.9326,0.9317,0.9313,0.9305,0.9299,0.9295,0.9298,0.9292,0.9297,0.9301,0.9298,0.9298,0.9298,0.9298,0.9298,0.9297,0.9297,0.9297,0,0.9375,0.9371,0.9363,0.936,0.9356,0.9347,0.9346,0.9341,0.9332,0.9329,0.9326,0.9314,0.9308,0.9302,0.9303,0.93,0.9298,0.9298,0.9299,0.9299,0.9299,0.9299,0.9299,0.9297,0.9297,0.9297,0.9297,0,0.938,0.9377,0.9378,0.9369,0.9365,0.9364,0.9354,0.9351,0.9345,0.9338,0.9332,0.9324,0.9316,0.9314,0.9309,0.9307,0.9305,0.9301,0.9296,0.93,0.93,0.9299,0.9298,0.9298,0.9298,0.9298,0,0,0.9399,0.9384,0.9384,0.9379,0.9369,0.9366,0.9362,0.9354,0.9351,0.9344,0.9339,0.9332,0.9327,0.9322,0.9315,0.9312,0.9313,0.9308,0.9307,0.9308,0.9307,0.931,0.931,0.9308,0.9308,0.9308,0.9307,0,0.9406,0.94,0.9391,0.9387,0.9383,0.9373,0.9369,0.9361,0.9354,0.9348,0.934,0.9334,0.9329,0.9326,0.9322,0.9313,0.9312,0.9313,0.9303,0.9302,0.9304,0.931,0.9313,0.9312,0.9307,0.9307,0.9307,0,0.9413,0.9407,0.9402,0.939,0.9388,0.9385,0.9375,0.9371,0.9361,0.9355,0.9349,0.9341,0.9334,0.9331,0.932,0.9321,0.9316,0.9311,0.931,0.9309,0.9305,0.9307,0.9312,0.9312,0.9307,0.9307,0.9307,0,0.9425,0.9415,0.941,0.9406,0.9392,0.939,0.9384,0.9374,0.9369,0.936,0.9356,0.9347,0.9341,0.9333,0.9323,0.9321,0.9313,0.9309,0.9307,0.9307,0.9306,0.9306,0.9309,0.9304,0.9304,0.9304,0.9304,0,0.9433,0.943,0.9415,0.9412,0.9408,0.9397,0.9393,0.9386,0.9376,0.937,0.9361,0.9355,0.9342,0.9334,0.9325,0.9317,0.9315,0.9309,0.9307,0.931,0.931,0.9306,0.9305,0.9304,0.9304,0.9304,0.9304,0,0.9446,0.9436,0.943,0.9416,0.9412,0.941,0.9397,0.9393,0.9385,0.9377,0.9375,0.9361,0.9352,0.934,0.9327,0.932,0.9312,0.9309,0.9316,0.9314,0.9313,0.9312,0.9313,0.9312,0.9308,0.9308,0.9308,0,0.9451,0.9448,0.9434,0.9429,0.9424,0.9417,0.9411,0.9399,0.9394,0.938,0.9377,0.9367,0.9357,0.9342,0.933,0.9319,0.9315,0.9316,0.9313,0.9315,0.9313,0.9313,0.9312,0.9316,0.9316,0.9317,0.9317,0,0.9461,0.9455,0.9448,0.9438,0.9431,0.9423,0.9414,0.9411,0.9397,0.939,0.938,0.9373,0.9358,0.9347,0.9334,0.9326,0.9318,0.9317,0.9316,0.9319,0.9322,0.9319,0.9316,0.9317,0.9317,0.9317,0.9317,0.9317,0.9468,0.9465,0.9454,0.9445,0.9437,0.9428,0.9423,0.9413,0.9405,0.9392,0.9385,0.9375,0.9362,0.9344,0.9336,0.9326,0.9323,0.9322,0.9322,0.9321,0.9321,0.9324,0.9324,0.9324,0.9324,0.9324,0.9324,0,0.9476,0.9468,0.946,0.9448,0.944,0.9434,0.9423,0.9417,0.9407,0.9397,0.9387,0.9374,0.9363,0.9349,0.9336,0.9331,0.9327,0.9328,0.9328,0.9326,0.9325,0.9327,0.9331,0.9331,0.9331,0.9331,0.9331,0.9331,0.9479,0.9472,0.9465,0.9453,0.9444,0.9434,0.9428,0.9419,0.941,0.9396,0.9386,0.9378,0.9365,0.9351,0.9339,0.9335,0.933,0.9332,0.9327,0.9327,0.9326,0.9326,0.9327,0.9332,0.9332,0.9329,0.9329,0.9329]},{"header":{"parameterUnit":"m.s-1","parameterCategory":1,"la1":30.2991,"la2":30.254,"lo1":-89.0895,"lo2":-89.0444,"dy":0.0017,"dx":0.0017,"nx":28,"ny":28,"refTime":"2024-08-16T09:00:00:Z","depth":0,"parameterNumber":3,"parameterNumberName":"V-component_of_WINDS"},"data":[0,0,0,0,0,0,0,0,0,0,0,0,0,0,0,0,0,0,0,0,0,0,0,0,0,0,0,0,0,0,0,0,0,0,0,0,0,0,0,0,0,0,0,0,0,0,0,0,0,0,0,0,0,0,0,0,0,0,1.0317,1.0318,0,1.0395,1.0396,1.0397,1.0401,1.04,1.0399,1.0398,1.0477,1.048,1.0482,0,0,0,0,0,0,0,0,0,0,0,0,0,1.0168,1.017,1.0317,1.0318,1.0319,1.0395,1.0396,1.0397,1.0401,1.04,1.0398,1.0397,1.0476,1.0479,1.0483,0,0,0,0,0,0,0,0,0,0,0,0,0,1.0238,1.0171,1.0317,1.033,1.0332,1.0395,1.0396,1.0398,1.0401,1.04,1.0398,1.0397,1.0475,1.0479,1.0483,1.0538,0,0,1.0497,1.0499,0,0,0,0,0,0,0,0,1.0234,1.0243,1.0327,1.0329,1.0331,1.0387,1.0373,1.0445,1.0401,1.0375,1.0398,1.0396,1.0448,1.0454,1.0472,1.0542,1.0545,1.0497,1.05,1.0502,1.0503,0,0,0,0,0,0,0,1.0229,1.024,1.0348,1.0328,1.0331,1.0331,1.0339,1.0386,1.0418,1.0377,1.0377,1.0387,1.0449,1.0468,1.0474,1.0547,1.0497,1.0501,1.0504,1.0505,1.0663,1.0664,0,0,0,0,0,0,1.0222,1.0236,1.0346,1.035,1.0278,1.0335,1.0344,1.037,1.0418,1.0423,1.0388,1.0386,1.0461,1.0469,1.0477,1.0543,1.0502,1.0506,1.0508,1.0661,1.0663,1.0665,0,0,0,0,0,0,1.0219,1.0232,1.0342,1.0293,1.0307,1.0339,1.0368,1.0373,1.0392,1.0426,1.0431,1.0402,1.046,1.047,1.0522,1.0546,1.0508,1.0512,1.0659,1.0662,1.0664,1.0676,0,0,0,0,0,0,1.0214,1.0231,1.0253,1.0294,1.031,1.0388,1.037,1.0375,1.04,1.0399,1.044,1.0446,1.046,1.0516,1.0527,1.0551,1.0515,1.0658,1.066,1.0663,1.0674,1.0678,1.0682,0,0,0,0,0,1.0209,1.0253,1.0254,1.0267,1.0338,1.0389,1.0398,1.0414,1.0401,1.0423,1.0445,1.0444,1.0541,1.0521,1.0534,1.0559,1.0656,1.066,1.0663,1.0672,1.0678,1.0682,0,0,0,0,0,0,1.0214,1.0259,1.026,1.0319,1.035,1.039,1.0418,1.042,1.0455,1.0453,1.0471,1.048,1.0531,1.055,1.0527,1.0614,1.0597,1.0603,1.0599,1.0605,1.0609,1.0604,1.0519,0,0,0,0,0,1.0222,1.026,1.0297,1.0345,1.0361,1.0387,1.0409,1.0419,1.0452,1.0465,1.049,1.0521,1.0559,1.0583,1.0619,1.0676,1.0684,1.07,1.0704,1.0708,1.0713,1.0742,1.0749,1.0676,1.0676,1.0676,0,0,1.0239,1.0268,1.0291,1.0347,1.0373,1.041,1.0398,1.0439,1.0467,1.0471,1.0521,1.0541,1.0577,1.0631,1.0656,1.0649,1.0734,1.0712,1.0715,1.0718,1.0746,1.0753,1.0759,1.0678,1.0678,1.0677,0,0,1.0289,1.0316,1.0358,1.0383,1.0422,1.0438,1.0448,1.0487,1.05,1.055,1.0553,1.0586,1.0651,1.0676,1.0697,1.0753,1.0754,1.0765,1.0788,1.0816,1.0822,1.0827,1.0846,1.0853,1.077,1.077,1.077,0,1.0306,1.0364,1.038,1.042,1.0444,1.0449,1.0491,1.0514,1.0562,1.0578,1.0569,1.0648,1.0673,1.0732,1.0745,1.0763,1.0773,1.076,1.082,1.0825,1.083,1.0848,1.0856,1.0771,1.077,1.077,1.077,0,1.0381,1.0421,1.045,1.0496,1.0523,1.0564,1.0585,1.061,1.0616,1.0633,1.0683,1.0713,1.0754,1.0769,1.0776,1.0828,1.0822,1.0816,1.08,1.0838,1.0855,1.0862,1.0772,1.0772,1.0771,1.0771,0,0,1.0438,1.049,1.0501,1.0521,1.0562,1.0593,1.0633,1.0674,1.0694,1.0726,1.076,1.0813,1.0807,1.0831,1.084,1.0865,1.0906,1.0856,1.0857,1.0863,1.0964,1.0967,1.0975,1.0906,1.0908,1.0909,1.096,0,1.0492,1.0565,1.0579,1.0642,1.0677,1.0681,1.0716,1.0744,1.0761,1.0793,1.081,1.0847,1.0837,1.0851,1.0876,1.0896,1.0926,1.0892,1.0936,1.0938,1.0927,1.0985,1.0989,1.1037,1.0967,1.0968,1.0969,0,1.0565,1.0599,1.0665,1.0699,1.0715,1.0746,1.0783,1.0814,1.0845,1.0855,1.0881,1.0887,1.0927,1.0908,1.0963,1.094,1.0958,1.097,1.0972,1.0977,1.0956,1.099,1.1052,1.1059,1.098,1.0979,1.0979,0,1.0599,1.066,1.0707,1.0724,1.0766,1.0787,1.0806,1.0836,1.0858,1.089,1.0905,1.0941,1.0961,1.0988,1.1003,1.0988,1.1056,1.1039,1.1064,1.1064,1.1078,1.1077,1.1144,1.1091,1.1091,1.1091,1.1091,0,1.0657,1.0697,1.0723,1.0751,1.0795,1.081,1.0853,1.0871,1.0897,1.0929,1.0934,1.0963,1.0981,1.1012,1.1024,1.1067,1.1076,1.1084,1.1087,1.1083,1.1082,1.1096,1.1093,1.1093,1.1092,1.1092,1.1092,0,1.0702,1.0721,1.0772,1.0807,1.0816,1.0847,1.0876,1.0904,1.0919,1.0958,1.0968,1.0992,1.1029,1.1047,1.1092,1.11,1.1148,1.1149,1.1138,1.1139,1.1162,1.1159,1.1239,1.125,1.1191,1.1192,1.1192,0,1.0739,1.0769,1.0807,1.0828,1.0846,1.0881,1.0904,1.0919,1.0942,1.0979,1.1001,1.1038,1.1069,1.1127,1.1148,1.1182,1.1183,1.1209,1.1188,1.1183,1.1182,1.118,1.1182,1.1212,1.1213,1.1213,1.1214,0,1.08,1.0807,1.084,1.0875,1.0902,1.0931,1.0959,1.0976,1.0995,1.1021,1.1058,1.1082,1.1127,1.1164,1.1199,1.1216,1.1218,1.122,1.1227,1.1224,1.1216,1.1219,1.1147,1.1218,1.1218,1.1217,1.1217,1.1217,1.0841,1.0867,1.0897,1.0933,1.0956,1.0981,1.1008,1.1026,1.1058,1.1096,1.1103,1.1142,1.1171,1.1218,1.1237,1.1267,1.1261,1.1272,1.1275,1.1277,1.1278,1.1211,1.1274,1.1273,1.1273,1.1273,1.1273,0,1.0902,1.092,1.0953,1.0992,1.1019,1.1018,1.1048,1.1071,1.1106,1.1132,1.1162,1.1204,1.1238,1.1261,1.1295,1.1315,1.1316,1.1323,1.1322,1.1325,1.1282,1.1272,1.1321,1.1321,1.1321,1.1321,1.1321,1.1321,1.0936,1.0981,1.0991,1.1046,1.1064,1.1103,1.112,1.1143,1.1164,1.121,1.1239,1.1254,1.1278,1.1314,1.1345,1.135,1.1362,1.1369,1.1375,1.1334,1.1329,1.1324,1.1314,1.1372,1.1372,1.1415,1.1416,1.1416]}]]